Wind_Speed
23 22 21 20 18 16 15 12 10 8 7 7 8 9 11 14 16 19 21 23 25 27 29 31 34 34 34 35 35 35 35 35 35 35 36 36 37 37 36 35 34 34 33
24 23 22 21 20 19 17 14 12 10 9 8 7 8 9 10 12 14 17 20 22 24 26 27 30 31 30 30 32 33 33 33 33 34 34 34 35 35 35 35 35 34 33
24 24 22 21 21 21 19 17 14 13 11 10 8 7 7 8 9 11 13 16 18 20 22 24 27 28 28 28 28 29 31 31 32 33 34 34 34 34 34 33 33 33 32
25 25 24 23 22 22 21 19 17 15 14 12 10 8 6 6 6 7 9 11 13 16 18 20 23 24 24 25 26 26 27 29 30 32 34 34 33 33 34 33 32 32 32
25 25 25 25 24 23 23 22 20 17 15 14 12 10 8 6 5 5 7 9 11 13 15 17 19 20 20 22 23 25 25 26 28 29 29 31 31 31 32 32 32 31 30
25 25 25 25 25 25 24 23 22 20 18 16 15 13 10 7 5 4 4 6 7 10 12 14 16 17 18 19 21 22 22 23 24 26 27 28 29 29 29 30 29 29 30
25 25 25 25 25 25 25 24 23 22 20 18 17 15 12 9 6 5 3 2 4 6 8 11 13 15 16 17 18 19 20 21 22 23 25 26 26 27 27 26 26 27 27
24 25 25 25 25 25 25 25 24 24 23 22 21 20 16 13 10 7 6 4 1 3 5 8 10 13 14 14 15 16 17 18 19 20 21 22 23 24 23 24 24 24 23
24 24 24 24 24 25 24 24 24 23 23 22 21 20 18 15 12 9 7 6 4 2 2 4 6 8 10 11 13 15 16 16 17 18 18 19 20 21 21 22 22 22 21
22 23 24 23 23 24 24 24 24 23 22 22 21 20 18 16 14 12 10 8 6 4 2 1 2 4 6 7 9 10 12 13 14 15 15 16 17 19 19 19 19 19 19
21 21 22 23 23 23 23 23 23 23 22 22 21 20 18 16 15 14 12 10 9 7 5 3 1 1 2 4 6 7 7 9 10 12 13 14 15 16 16 16 16 16 16
19 20 20 21 22 22 22 22 22 22 22 21 21 20 19 18 16 15 13 12 11 9 7 5 3 3 2 2 3 4 5 7 7 9 11 12 12 13 13 13 14 14 14
18 18 19 19 20 21 21 21 21 21 21 21 20 19 19 18 17 16 15 13 11 11 9 7 6 5 4 4 3 3 3 4 5 7 8 9 9 10 11 12 11 11 11
18 18 18 18 18 19 19 19 19 20 19 19 19 18 17 17 17 16 15 15 13 12 11 10 9 8 7 7 6 5 5 5 5 5 6 7 8 8 9 10 10 10 10
18 18 18 17 17 17 17 18 18 18 17 17 17 17 16 15 15 15 14 14 13 12 11 10 10 9 8 7 6 5 5 5 4 5 5 5 5 5 6 7 8 8 8
19 18 18 17 17 17 16 16 16 16 16 15 15 15 15 14 13 13 13 13 12 11 10 9 9 8 8 7 6 6 5 4 4 4 4 4 3 3 3 5 6 6 7
20 19 18 18 17 17 16 16 15 15 14 14 13 13 12 12 11 11 11 11 10 10 10 9 7 7 6 6 5 5 4 4 3 3 3 3 2 2 2 3 4 5 6
21 21 20 19 19 18 17 16 15 15 14 13 12 12 11 10 10 9 8 8 8 8 7 7 6 6 5 5 4 3 3 3 3 2 2 2 2 2 2 3 4 4 5
24 23 22 22 21 20 19 18 17 15 14 13 13 12 11 10 9 8 7 6 6 5 5 5 4 4 4 3 3 3 2 2 2 2 1 1 1 2 3 4 4 4 5
27 26 25 24 23 22 21 20 19 18 16 15 14 13 12 10 9 8 7 6 6 5 4 4 3 2 2 1 1 1 0 0 1 1 1 1 2 2 3 4 4 5 6
31 30 29 27 26 25 24 23 22 21 19 18 17 15 14 13 11 10 9 8 8 7 6 5 5 4 4 4 3 3 2 2 3 3 3 3 4 4 4 5 5 6 6
35 34 32 31 30 29 27 26 25 24 23 21 20 18 17 16 15 13 12 11 10 10 9 9 8 7 7 7 6 6 6 6 6 6 6 6 6 6 6 7 7 7 7
39 37 36 35 34 33 31 30 29 28 26 25 24 22 21 19 18 17 16 15 14 13 12 12 11 11 10 10 9 9 9 9 9 9 9 9 9 9 9 9 9 9 10
43 42 40 39 38 37 35 34 33 31 30 29 28 26 25 24 22 21 20 19 17 16 16 15 15 14 14 14 13 12 12 12 12 12 12 12 12 12 12 12 12 12 12
46 45 44 43 42 41 39 38 37 35 34 33 31 30 29 28 26 25 24 23 21 20 19 19 18 18 17 17 17 16 16 15 15 15 15 15 15 15 15 15 15 15 15
50 50 49 48 47 46 44 43 41 40 38 37 35 34 33 32 30 29 28 27 26 24 23 22 22 21 20 20 20 20 19 19 19 19 18 18 18 18 18 17 17 17 17
Wind_Direction
17 16 15 15 14 10 6 2 356 345 331 306 283 268 260 255 251 247 245 243 243 240 238 237 234 234 235 236 237 237 237 237 238 238 239 240 242 243 245 245 246 247 247
18 18 18 19 19 18 14 10 4 355 343 330 302 287 276 268 258 249 246 244 243 241 239 237 234 235 234 235 236 237 236 237 239 239 239 240 242 241 243 245 247 248 250
20 19 19 20 19 18 16 14 11 7 0 352 337 310 289 277 266 253 247 244 243 241 239 237 234 235 237 237 237 237 237 238 238 239 240 240 241 241 242 243 246 247 249
23 23 22 22 20 18 18 17 15 12 10 8 1 344 321 302 284 265 251 245 241 240 239 236 234 236 237 236 238 238 238 238 239 240 241 241 242 242 241 242 244 245 248
24 24 24 24 24 23 22 22 21 20 18 14 11 5 353 333 308 278 261 251 248 245 241 238 236 236 236 234 236 236 237 238 238 240 240 239 239 240 240 241 242 244 245
23 24 25 25 25 25 25 24 25 25 24 22 19 18 10 1 348 318 283 261 251 245 238 236 236 236 236 236 237 238 239 239 237 238 237 237 237 237 239 239 239 241 242
23 24 25 25 26 26 27 27 27 27 28 28 26 23 21 20 16 9 349 292 259 246 241 238 236 235 236 240 241 241 239 237 236 235 233 234 235 235 235 234 235 237 241
23 24 25 25 26 27 27 28 28 28 29 30 30 30 33 35 35 30 25 16 329 255 247 240 236 235 238 240 239 237 237 236 235 233 232 231 231 232 233 233 234 238 239
22 22 23 24 25 26 27 27 27 26 27 29 30 32 35 37 38 34 30 23 23 359 276 245 232 229 232 233 235 237 237 236 233 233 232 231 230 230 232 232 234 235 236
17 19 21 22 23 24 25 26 26 26 26 26 27 30 33 35 34 35 33 30 30 29 20 305 240 231 228 232 228 228 229 230 228 228 226 227 229 228 228 227 228 231 235
12 15 18 19 20 21 22 24 24 25 26 26 26 28 31 33 33 35 37 37 38 40 46 58 77 178 208 211 213 214 216 217 217 219 221 223 224 221 220 221 224 227 233
6 9 11 14 16 17 18 20 22 23 25 26 27 29 31 33 36 38 40 41 42 45 48 53 55 65 111 157 185 196 202 203 206 210 212 213 214 217 220 222 225 230 234
359 1 4 6 9 11 13 16 19 20 22 25 27 28 30 32 34 37 39 41 43 44 47 53 57 66 75 92 118 134 158 174 183 191 196 201 206 211 215 218 223 229 233
348 352 354 357 -0 3 5 9 13 16 18 21 24 27 29 31 34 37 39 42 45 48 51 55 61 68 76 87 100 111 122 131 147 164 182 195 206 209 209 215 224 229 234
336 340 343 346 349 353 357 359 3 8 12 16 20 23 26 29 32 34 37 40 44 48 53 58 66 73 79 88 96 107 124 124 133 147 160 175 192 204 210 220 229 233 234
326 329 332 335 339 342 345 349 353 357 2 6 11 15 19 23 27 31 34 37 42 47 52 58 64 68 68 74 83 94 107 117 126 134 145 158 177 193 213 226 231 233 235
316 319 322 324 326 329 332 336 340 344 349 353 358 3 8 13 18 25 29 33 37 42 48 54 60 64 67 73 77 84 93 104 120 136 148 154 175 196 213 224 225 228 236
307 309 311 313 315 317 319 322 325 329 333 337 341 347 352 358 3 9 15 21 27 32 38 45 53 59 64 71 73 79 83 90 107 128 151 171 191 204 219 232 235 237 242
300 301 302 303 305 306 308 309 311 314 317 320 323 326 331 336 341 347 352 358 4 10 17 23 32 45 54 58 59 63 74 89 102 119 142 164 203 225 237 243 249 254 258
294 294 295 296 296 297 298 299 300 301 302 304 307 309 311 313 315 318 321 323 326 328 331 338 343 345 345 349 357 4 356 234 220 214 223 241 252 256 258 259 262 265 266
288 289 289 290 290 290 290 291 291 291 292 292 293 295 296 297 297 297 297 298 297 297 297 297 296 292 281 277 276 273 265 257 251 252 257 261 264 268 269 268 267 268 268
284 284 285 285 284 284 284 284 284 284 284 284 284 284 284 284 284 284 284 284 283 282 280 278 277 275 273 269 267 266 265 263 261 261 263 267 271 274 273 271 268 267 267
281 280 280 280 280 280 280 279 279 278 278 278 278 277 277 276 276 276 275 275 274 274 273 271 269 266 266 265 264 264 264 264 265 266 267 269 272 273 273 272 271 269 268
278 277 277 276 276 276 276 275 275 274 274 273 273 272 272 271 271 270 269 269 268 268 268 267 267 264 262 262 262 262 263 263 265 267 268 270 271 273 273 272 271 270 269
275 274 273 273 273 272 272 271 271 270 270 269 269 268 268 267 267 267 266 265 265 265 264 264 263 263 262 261 261 261 262 262 263 266 268 269 269 271 272 272 271 271 270
273 271 270 269 269 269 268 268 267 267 267 266 266 265 265 264 264 264 263 263 263 263 262 262 262 261 261 261 261 261 261 262 263 265 267 268 270 270 271 271 271 271 271
Height
5784 5779 5774 5770 5765 5762 5758 5756 5753 5751 5749 5748 5747 5747 5747 5748 5748 5750 5752 5755 5758 5761 5764 5768 5771 5775 5779 5783 5787 5790 5794 5798 5802 5805 5808 5812 5815 5818 5821 5824 5826 5829 5831
5786 5781 5776 5772 5767 5763 5759 5756 5753 5751 5748 5747 5745 5744 5744 5744 5745 5746 5747 5750 5752 5755 5758 5761 5765 5768 5772 5776 5779 5783 5786 5790 5794 5797 5800 5803 5807 5810 5813 5816 5818 5821 5823
5789 5784 5779 5774 5770 5765 5761 5757 5754 5751 5748 5746 5743 5742 5742 5742 5742 5742 5743 5745 5747 5749 5752 5755 5758 5762 5765 5768 5772 5775 5778 5782 5785 5789 5792 5795 5798 5802 5805 5807 5810 5813 5815
5792 5787 5782 5777 5772 5768 5763 5759 5755 5751 5748 5746 5743 5741 5740 5740 5740 5740 5740 5741 5743 5745 5747 5750 5753 5756 5759 5762 5765 5768 5771 5774 5777 5780 5784 5787 5790 5793 5796 5799 5802 5805 5807
5795 5790 5785 5780 5775 5770 5766 5761 5756 5753 5749 5746 5743 5741 5739 5738 5738 5738 5738 5739 5740 5742 5744 5746 5748 5751 5753 5756 5759 5762 5764 5767 5770 5772 5776 5779 5782 5785 5789 5792 5795 5797 5800
5798 5793 5788 5783 5779 5774 5768 5764 5759 5755 5751 5748 5744 5742 5739 5738 5736 5736 5736 5737 5737 5738 5740 5742 5744 5746 5749 5751 5753 5756 5758 5761 5763 5766 5769 5772 5775 5778 5781 5784 5787 5791 5793
5802 5797 5792 5787 5782 5777 5772 5767 5763 5758 5754 5750 5746 5743 5740 5738 5737 5736 5735 5735 5735 5736 5737 5738 5740 5742 5744 5746 5748 5751 5753 5755 5758 5760 5763 5766 5769 5772 5775 5778 5781 5784 5787
5805 5800 5795 5790 5786 5781 5776 5771 5766 5762 5758 5753 5749 5745 5741 5739 5738 5736 5736 5735 5734 5735 5735 5736 5737 5739 5741 5743 5744 5746 5748 5751 5753 5756 5758 5761 5763 5766 5769 5773 5775 5778 5781
5808 5803 5799 5794 5789 5784 5780 5775 5770 5766 5761 5757 5753 5749 5745 5743 5740 5739 5737 5736 5735 5735 5735 5735 5736 5737 5738 5740 5741 5743 5745 5747 5749 5751 5754 5756 5759 5762 5764 5768 5771 5773 5775
5810 5806 5801 5797 5792 5788 5783 5779 5774 5770 5765 5761 5757 5753 5749 5746 5744 5741 5740 5738 5736 5735 5735 5735 5735 5736 5737 5738 5739 5740 5742 5744 5746 5748 5751 5753 5755 5758 5761 5764 5766 5768 5770
5813 5808 5804 5800 5795 5791 5786 5782 5778 5773 5769 5764 5760 5756 5753 5750 5747 5744 5742 5740 5738 5737 5736 5736 5736 5736 5736 5737 5738 5739 5740 5742 5743 5745 5748 5751 5753 5755 5758 5760 5762 5764 5766
5814 5810 5806 5802 5798 5794 5789 5785 5781 5776 5772 5768 5764 5760 5757 5753 5750 5747 5745 5743 5741 5739 5738 5737 5737 5737 5737 5737 5738 5738 5740 5741 5743 5744 5747 5749 5751 5753 5755 5758 5759 5761 5763
5815 5811 5808 5804 5800 5796 5792 5788 5784 5780 5776 5772 5768 5764 5761 5757 5754 5751 5748 5746 5744 5742 5740 5740 5739 5738 5738 5738 5738 5739 5740 5741 5743 5745 5747 5748 5750 5752 5754 5756 5757 5759 5760
5815 5812 5808 5805 5801 5798 5794 5790 5786 5783 5779 5775 5771 5768 5764 5761 5758 5755 5752 5750 5747 5745 5743 5742 5741 5741 5740 5740 5741 5741 5742 5743 5744 5745 5747 5748 5750 5751 5753 5754 5756 5757 5758
5814 5811 5808 5805 5802 5798 5795 5792 5788 5785 5781 5778 5774 5771 5767 5765 5762 5759 5756 5753 5751 5749 5747 5745 5745 5744 5744 5743 5743 5743 5744 5744 5745 5746 5747 5748 5749 5750 5751 5753 5754 5755 5756
5812 5810 5807 5804 5801 5798 5795 5792 5789 5786 5783 5779 5776 5773 5770 5767 5764 5762 5759 5757 5754 5752 5750 5749 5748 5747 5747 5746 5746 5746 5746 5746 5747 5747 5748 5749 5749 5750 5751 5752 5753 5754 5755
5810 5807 5805 5802 5800 5797 5794 5792 5789 5786 5783 5780 5777 5774 5772 5769 5766 5764 5762 5759 5757 5755 5754 5752 5751 5750 5749 5749 5748 5748 5748 5748 5748 5748 5749 5749 5750 5750 5751 5751 5752 5753 5753
5806 5804 5801 5799 5797 5795 5792 5790 5788 5785 5783 5780 5777 5775 5772 5770 5767 5765 5763 5761 5760 5758 5756 5755 5753 5752 5751 5751 5750 5749 5749 5749 5749 5749 5749 5750 5750 5750 5751 5751 5751 5752 5752
5801 5799 5797 5795 5793 5791 5789 5787 5785 5783 5781 5779 5776 5774 5772 5770 5767 5765 5764 5762 5760 5759 5757 5756 5755 5754 5753 5752 5751 5751 5750 5750 5750 5749 5749 5750 5750 5750 5750 5750 5750 5751 5751
5794 5793 5791 5790 5788 5787 5785 5783 5781 5780 5778 5776 5774 5772 5770 5768 5767 5765 5763 5761 5760 5759 5757 5756 5755 5754 5753 5752 5752 5751 5751 5750 5750 5750 5750 5749 5749 5749 5749 5749 5749 5749 5749
5787 5785 5784 5783 5782 5780 5779 5778 5776 5775 5774 5772 5770 5769 5767 5766 5764 5763 5761 5760 5758 5757 5756 5755 5754 5753 5752 5752 5751 5750 5750 5750 5749 5749 5749 5749 5748 5748 5748 5748 5747 5747 5747
5777 5777 5776 5775 5774 5773 5772 5771 5770 5769 5768 5767 5765 5764 5763 5762 5760 5759 5758 5757 5756 5755 5754 5753 5752 5751 5750 5750 5749 5749 5748 5748 5748 5747 5747 5747 5746 5746 5746 5745 5745 5745 5745
5766 5766 5765 5765 5764 5764 5763 5762 5761 5761 5760 5760 5759 5758 5757 5756 5755 5754 5753 5753 5752 5751 5750 5749 5748 5748 5747 5747 5746 5746 5745 5745 5745 5745 5744 5744 5744 5743 5743 5743 5742 5742 5742
5753 5753 5753 5753 5753 5753 5752 5752 5752 5751 5751 5751 5751 5750 5750 5749 5749 5748 5747 5747 5746 5746 5745 5744 5744 5743 5743 5742 5742 5742 5741 5741 5741 5740 5740 5740 5740 5739 5739 5739 5738 5738 5738
5738 5739 5739 5739 5739 5740 5740 5740 5740 5740 5740 5740 5741 5741 5741 5741 5740 5740 5740 5740 5739 5739 5739 5738 5738 5738 5737 5737 5737 5736 5736 5736 5736 5735 5735 5735 5735 5735 5734 5734 5734 5733 5733
5722 5722 5723 5723 5724 5725 5726 5726 5727 5727 5728 5729 5729 5730 5730 5730 5731 5731 5731 5731 5731 5731 5731 5731 5731 5731 5730 5730 5730 5730 5730 5730 5730 5729 5729 5729 5729 5729 5728 5728 5728 5727 5727